EWG269 EDDL-EDDC

Flight info

Callsign EWG269
Flight time 0h 48m
Altitude 23000
Route NUDGO5Z NUDGO Z858 BERDI Z21 DRN
Aircraft A320/M-SDE3FGHIRWY/LB1

Departure

Time 2026-05-06 16:39
Airport Düsseldorf Airport (EDDL)

Arrival

Time 2026-05-06 17:27
Airport Dresden Airport (EDDC)
Time Latitude Longitude Altitude Speed Heading
2026-05-06 16:05 51.28206 6.76743 127 ft 0 kts 276°
2026-05-06 16:25 51.28205 6.76766 124 ft 4 kts 277°
2026-05-06 16:25 51.28198 6.76804 123 ft 4 kts 314°
2026-05-06 16:26 51.28180 6.76828 124 ft 4 kts 336°
2026-05-06 16:26 51.28155 6.76834 127 ft 4 kts 10°
2026-05-06 16:26 51.28139 6.76828 129 ft 0 kts 14°
2026-05-06 16:34 51.28160 6.76837 128 ft 10 kts 14°
2026-05-06 16:34 51.28254 6.76852 129 ft 14 kts 358°
2026-05-06 16:34 51.28330 6.76778 124 ft 13 kts 322°
2026-05-06 16:35 51.28404 6.76684 121 ft 14 kts 319°
2026-05-06 16:35 51.28394 6.76575 122 ft 9 kts 229°
2026-05-06 16:35 51.28351 6.76485 122 ft 13 kts 233°
2026-05-06 16:35 51.28289 6.76353 124 ft 17 kts 234°
2026-05-06 16:36 51.28212 6.76191 126 ft 18 kts 233°
2026-05-06 16:36 51.28145 6.76054 127 ft 13 kts 233°
2026-05-06 16:36 51.28088 6.75931 127 ft 15 kts 232°
2026-05-06 16:36 51.28017 6.75785 126 ft 18 kts 232°
2026-05-06 16:37 51.27937 6.75616 127 ft 21 kts 232°
2026-05-06 16:37 51.27845 6.75424 125 ft 20 kts 235°
2026-05-06 16:37 51.27843 6.75349 121 ft 3 kts 302°
2026-05-06 16:37 51.27878 6.75320 124 ft 8 kts 334°
2026-05-06 16:38 51.27944 6.75272 120 ft 13 kts 342°
2026-05-06 16:38 51.28020 6.75324 123 ft 15 kts 51°
2026-05-06 16:38 51.28137 6.75568 125 ft 56 kts 52°
2026-05-06 16:38 51.28502 6.76334 125 ft 114 kts 53°
2026-05-06 16:39 51.29075 6.77528 273 ft 148 kts 51°
2026-05-06 16:39 51.29699 6.78835 870 ft 148 kts 50°
2026-05-06 16:39 51.30322 6.80157 1531 ft 153 kts 51°
2026-05-06 16:39 51.31008 6.81606 1867 ft 174 kts 51°
2026-05-06 16:40 51.31783 6.83239 2172 ft 194 kts 51°
2026-05-06 16:40 51.32649 6.85067 2470 ft 219 kts 51°
2026-05-06 16:40 51.33554 6.87193 2903 ft 245 kts 65°
2026-05-06 16:40 51.33893 6.89935 3619 ft 258 kts 84°
2026-05-06 16:41 51.34044 6.92813 4522 ft 263 kts 83°
2026-05-06 16:41 51.34203 6.95748 5397 ft 267 kts 83°
2026-05-06 16:41 51.34368 6.98737 6254 ft 272 kts 83°
2026-05-06 16:41 51.34535 7.01777 7110 ft 276 kts 84°
2026-05-06 16:42 51.34700 7.04804 7989 ft 279 kts 84°
2026-05-06 16:42 51.34868 7.07912 8872 ft 282 kts 84°
2026-05-06 16:42 51.35036 7.11041 9756 ft 285 kts 83°
2026-05-06 16:42 51.35200 7.14129 10277 ft 301 kts 84°
2026-05-06 16:43 51.35385 7.17592 10563 ft 324 kts 84°
2026-05-06 16:43 51.35574 7.21171 11099 ft 337 kts 85°
2026-05-06 16:43 51.35770 7.24954 11764 ft 344 kts 85°
2026-05-06 16:43 51.35969 7.28794 12495 ft 349 kts 85°
2026-05-06 16:44 51.36170 7.32693 13199 ft 354 kts 86°
2026-05-06 16:44 51.36362 7.36475 13855 ft 358 kts 86°
2026-05-06 16:44 51.36562 7.40470 14497 ft 362 kts 86°
2026-05-06 16:44 51.36754 7.44326 15107 ft 365 kts 86°
2026-05-06 16:45 51.36960 7.48439 15792 ft 368 kts 86°
2026-05-06 16:45 51.37165 7.52548 16469 ft 372 kts 86°
2026-05-06 16:45 51.37372 7.56690 17118 ft 376 kts 85°
2026-05-06 16:45 51.37583 7.60880 17774 ft 379 kts 85°
2026-05-06 16:46 51.37793 7.65103 18345 ft 383 kts 86°
2026-05-06 16:46 51.37997 7.69263 18845 ft 386 kts 87°
2026-05-06 16:46 51.38196 7.73427 19326 ft 390 kts 87°
2026-05-06 16:46 51.38400 7.77777 19858 ft 393 kts 87°
2026-05-06 16:47 51.38594 7.82152 20401 ft 395 kts 88°
2026-05-06 16:47 51.38738 7.86505 20932 ft 397 kts 89°
2026-05-06 16:47 51.38848 7.90993 21464 ft 400 kts 89°
2026-05-06 16:47 51.38936 7.95396 21979 ft 402 kts 90°
2026-05-06 16:48 51.39021 7.99882 22504 ft 404 kts 90°
2026-05-06 16:48 51.39109 8.04391 22791 ft 406 kts 89°
2026-05-06 16:48 51.39201 8.08857 22835 ft 397 kts 89°
2026-05-06 16:48 51.39296 8.13253 22834 ft 393 kts 89°
2026-05-06 16:49 51.39391 8.17622 22826 ft 393 kts 90°
2026-05-06 16:49 51.39484 8.22006 22833 ft 395 kts 90°
2026-05-06 16:49 51.39574 8.26402 22824 ft 395 kts 90°
2026-05-06 16:49 51.39663 8.30794 22824 ft 395 kts 90°
2026-05-06 16:50 51.39750 8.35193 22829 ft 395 kts 90°
2026-05-06 16:50 51.39836 8.39596 22827 ft 395 kts 90°
2026-05-06 16:50 51.39919 8.43988 22832 ft 395 kts 90°
2026-05-06 16:50 51.40001 8.48386 22829 ft 395 kts 90°
2026-05-06 16:51 51.40080 8.52786 22832 ft 395 kts 90°
2026-05-06 16:51 51.40157 8.57180 22831 ft 395 kts 90°
2026-05-06 16:51 51.40235 8.61580 22830 ft 395 kts 90°
2026-05-06 16:51 51.40314 8.65976 22816 ft 395 kts 90°
2026-05-06 16:52 51.40390 8.70404 22832 ft 400 kts 90°
2026-05-06 16:52 51.40467 8.74875 22832 ft 403 kts 90°
2026-05-06 16:52 51.40541 8.79356 22832 ft 403 kts 91°
2026-05-06 16:52 51.40612 8.83847 22831 ft 403 kts 91°
2026-05-06 16:53 51.40681 8.88338 22831 ft 403 kts 91°
2026-05-06 16:53 51.40748 8.92767 22827 ft 403 kts 91°
2026-05-06 16:53 51.40813 8.97258 22826 ft 403 kts 91°
2026-05-06 16:53 51.40878 9.01745 22826 ft 403 kts 91°
2026-05-06 16:54 51.40942 9.06235 22824 ft 403 kts 91°
2026-05-06 16:54 51.41002 9.10719 22823 ft 403 kts 91°
2026-05-06 16:54 51.41059 9.15211 22822 ft 404 kts 91°
2026-05-06 16:54 51.41115 9.19711 22820 ft 403 kts 91°
2026-05-06 16:55 51.41170 9.24199 22814 ft 403 kts 91°
2026-05-06 16:55 51.41224 9.28682 22812 ft 403 kts 91°
2026-05-06 16:55 51.41277 9.33181 22810 ft 403 kts 91°
2026-05-06 16:55 51.41328 9.37664 22804 ft 403 kts 91°
2026-05-06 16:56 51.41374 9.42158 22803 ft 403 kts 91°
2026-05-06 16:56 51.41419 9.46651 22802 ft 403 kts 91°
2026-05-06 16:56 51.41462 9.51149 22801 ft 404 kts 91°
2026-05-06 16:56 51.41505 9.55637 22801 ft 404 kts 91°
2026-05-06 16:57 51.41549 9.60132 22806 ft 404 kts 91°
2026-05-06 16:57 51.41593 9.64633 22797 ft 404 kts 91°
2026-05-06 16:57 51.41631 9.69129 22794 ft 404 kts 91°
2026-05-06 16:57 51.41667 9.73627 22793 ft 404 kts 92°
2026-05-06 16:58 51.41701 9.78137 22795 ft 405 kts 92°
2026-05-06 16:58 51.41734 9.82636 22790 ft 404 kts 92°
2026-05-06 16:58 51.41764 9.87145 22790 ft 405 kts 92°
2026-05-06 16:58 51.41796 9.91656 22789 ft 405 kts 92°
2026-05-06 16:59 51.41828 9.96157 22792 ft 405 kts 92°
2026-05-06 16:59 51.41855 10.00675 22793 ft 405 kts 92°
2026-05-06 16:59 51.41880 10.05193 22780 ft 405 kts 92°
2026-05-06 16:59 51.41902 10.09704 22782 ft 405 kts 92°
2026-05-06 17:00 51.41922 10.14156 22759 ft 406 kts 92°
2026-05-06 17:00 51.41938 10.18737 22765 ft 406 kts 92°
2026-05-06 17:00 51.41953 10.23217 22756 ft 407 kts 92°
2026-05-06 17:00 51.41969 10.27760 22758 ft 408 kts 92°
2026-05-06 17:01 51.41987 10.32305 22762 ft 408 kts 92°
2026-05-06 17:01 51.42004 10.36852 22763 ft 408 kts 92°
2026-05-06 17:01 51.42016 10.41402 22757 ft 409 kts 92°
2026-05-06 17:01 51.42025 10.45958 22759 ft 409 kts 92°
2026-05-06 17:02 51.42021 10.50497 22764 ft 408 kts 95°
2026-05-06 17:02 51.41716 10.55000 22765 ft 405 kts 102°
2026-05-06 17:02 51.41276 10.59456 22749 ft 405 kts 102°
2026-05-06 17:02 51.40839 10.63914 22758 ft 405 kts 102°
2026-05-06 17:03 51.40404 10.68365 22764 ft 404 kts 102°
2026-05-06 17:03 51.39969 10.72813 22768 ft 404 kts 102°
2026-05-06 17:03 51.39534 10.77248 22772 ft 403 kts 102°
2026-05-06 17:03 51.39093 10.81679 22768 ft 403 kts 102°
2026-05-06 17:04 51.38649 10.86117 22770 ft 403 kts 102°
2026-05-06 17:04 51.38208 10.90551 22765 ft 403 kts 101°
2026-05-06 17:04 51.38021 10.95037 22767 ft 406 kts 91°
2026-05-06 17:04 51.38174 10.99565 22764 ft 407 kts 89°
2026-05-06 17:05 51.38347 11.04083 22767 ft 407 kts 89°
2026-05-06 17:05 51.38523 11.08613 22747 ft 407 kts 89°
2026-05-06 17:05 51.38697 11.13130 22759 ft 406 kts 89°
2026-05-06 17:05 51.38866 11.17639 22768 ft 406 kts 89°
2026-05-06 17:06 51.39028 11.22141 22783 ft 405 kts 89°
2026-05-06 17:06 51.39184 11.26641 22785 ft 405 kts 89°
2026-05-06 17:06 51.39336 11.31145 22784 ft 405 kts 89°
2026-05-06 17:06 51.39488 11.35640 22784 ft 404 kts 89°
2026-05-06 17:07 51.39637 11.40132 22771 ft 404 kts 89°
2026-05-06 17:07 51.39786 11.44631 22777 ft 404 kts 89°
2026-05-06 17:07 51.39937 11.49120 22771 ft 404 kts 89°
2026-05-06 17:07 51.40091 11.53610 22773 ft 404 kts 89°
2026-05-06 17:08 51.40193 11.56578 22769 ft 404 kts 89°
2026-05-06 17:08 51.40343 11.61073 22777 ft 403 kts 90°
2026-05-06 17:08 51.40488 11.65550 22782 ft 403 kts 90°
2026-05-06 17:08 51.40631 11.70027 22785 ft 402 kts 90°
2026-05-06 17:09 51.40771 11.74504 22783 ft 402 kts 90°
2026-05-06 17:09 51.40910 11.78966 22790 ft 402 kts 90°
2026-05-06 17:09 51.41046 11.83432 22782 ft 402 kts 90°
2026-05-06 17:09 51.41180 11.87906 22788 ft 401 kts 90°
2026-05-06 17:10 51.41310 11.92361 22783 ft 401 kts 90°
2026-05-06 17:10 51.41436 11.96742 22774 ft 401 kts 90°
2026-05-06 17:10 51.41565 12.01207 22776 ft 401 kts 90°
2026-05-06 17:10 51.41695 12.05668 22782 ft 401 kts 90°
2026-05-06 17:11 51.41825 12.10104 22615 ft 395 kts 90°
2026-05-06 17:11 51.41944 12.14237 22271 ft 388 kts 90°
2026-05-06 17:11 51.42062 12.18426 21799 ft 386 kts 90°
2026-05-06 17:11 51.42178 12.22648 21316 ft 384 kts 90°
2026-05-06 17:12 51.42295 12.26967 20826 ft 382 kts 90°
2026-05-06 17:12 51.42405 12.31142 20354 ft 380 kts 90°
2026-05-06 17:12 51.42515 12.35368 19872 ft 379 kts 90°
2026-05-06 17:12 51.42618 12.39381 19423 ft 377 kts 90°
2026-05-06 17:13 51.42717 12.43356 18971 ft 376 kts 90°
2026-05-06 17:13 51.42818 12.47534 18502 ft 375 kts 90°
2026-05-06 17:13 51.42792 12.51700 18028 ft 372 kts 99°
2026-05-06 17:13 51.42254 12.55708 17551 ft 365 kts 112°
2026-05-06 17:14 51.41240 12.59340 17115 ft 356 kts 124°
2026-05-06 17:14 51.39952 12.62678 16716 ft 351 kts 126°
2026-05-06 17:14 51.38732 12.65818 16328 ft 348 kts 126°
2026-05-06 17:14 51.37461 12.69094 15921 ft 345 kts 126°
2026-05-06 17:15 51.36196 12.72349 15531 ft 343 kts 126°
2026-05-06 17:15 51.34936 12.75579 15125 ft 341 kts 126°
2026-05-06 17:15 51.33685 12.78782 14729 ft 339 kts 125°
2026-05-06 17:15 51.32449 12.81939 14344 ft 337 kts 126°
2026-05-06 17:16 51.31208 12.85107 13937 ft 336 kts 125°
2026-05-06 17:16 51.30008 12.88165 13561 ft 335 kts 125°
2026-05-06 17:16 51.28772 12.91315 13126 ft 333 kts 125°
2026-05-06 17:16 51.27548 12.94440 12738 ft 331 kts 125°
2026-05-06 17:17 51.26333 12.97544 12321 ft 328 kts 126°
2026-05-06 17:17 51.25125 13.00624 11939 ft 326 kts 126°
2026-05-06 17:17 51.23928 13.03677 11554 ft 324 kts 126°
2026-05-06 17:17 51.22736 13.06709 11147 ft 322 kts 126°
2026-05-06 17:18 51.21567 13.09678 10747 ft 320 kts 126°
2026-05-06 17:18 51.20385 13.12678 10346 ft 318 kts 126°
2026-05-06 17:18 51.19211 13.15655 9941 ft 317 kts 126°
2026-05-06 17:18 51.18054 13.18590 9783 ft 307 kts 126°
2026-05-06 17:19 51.16938 13.21426 9639 ft 297 kts 126°
2026-05-06 17:19 51.15841 13.24195 9295 ft 294 kts 126°
2026-05-06 17:19 51.14754 13.26924 8733 ft 290 kts 126°
2026-05-06 17:19 51.13672 13.29628 8048 ft 289 kts 126°
2026-05-06 17:20 51.12597 13.32308 7391 ft 286 kts 126°
2026-05-06 17:20 51.11535 13.34963 6737 ft 284 kts 126°
2026-05-06 17:20 51.10356 13.37468 6346 ft 279 kts 136°
2026-05-06 17:20 51.09014 13.39647 5758 ft 274 kts 137°
2026-05-06 17:21 51.07679 13.41811 5036 ft 274 kts 137°
2026-05-06 17:21 51.06372 13.43930 4755 ft 261 kts 136°
2026-05-06 17:21 51.05129 13.45944 4626 ft 249 kts 137°
2026-05-06 17:21 51.03942 13.47863 4503 ft 238 kts 137°
2026-05-06 17:22 51.02801 13.49702 4363 ft 229 kts 137°
2026-05-06 17:22 51.01715 13.51494 4180 ft 224 kts 130°
2026-05-06 17:22 51.00969 13.53585 4042 ft 218 kts 110°
2026-05-06 17:22 51.00701 13.55904 3935 ft 211 kts 91°
2026-05-06 17:23 51.00900 13.58168 3798 ft 203 kts 73°
2026-05-06 17:23 51.01494 13.60125 3573 ft 191 kts 55°
2026-05-06 17:23 51.02358 13.61616 3371 ft 177 kts 40°
2026-05-06 17:23 51.03242 13.62822 3143 ft 160 kts 40°
2026-05-06 17:24 51.04061 13.63941 2933 ft 152 kts 40°
2026-05-06 17:24 51.04849 13.65018 2735 ft 148 kts 39°
2026-05-06 17:24 51.05619 13.66072 2527 ft 145 kts 40°
2026-05-06 17:24 51.06377 13.67111 2348 ft 143 kts 40°
2026-05-06 17:25 51.07129 13.68140 2157 ft 141 kts 40°
2026-05-06 17:25 51.07870 13.69156 1970 ft 141 kts 39°
2026-05-06 17:25 51.08604 13.70162 1780 ft 138 kts 39°
2026-05-06 17:25 51.09329 13.71157 1604 ft 137 kts 39°
2026-05-06 17:26 51.10052 13.72149 1406 ft 138 kts 40°
2026-05-06 17:26 51.10780 13.73149 1240 ft 138 kts 40°
2026-05-06 17:26 51.11507 13.74147 1069 ft 138 kts 39°
2026-05-06 17:26 51.12239 13.75108 892 ft 134 kts 39°
2026-05-06 17:27 51.12934 13.76082 765 ft 133 kts 41°
2026-05-06 17:27 51.13544 13.76920 731 ft 92 kts 43°
2026-05-06 17:27 51.13917 13.77450 724 ft 56 kts 41°
2026-05-06 17:27 51.14185 13.77822 716 ft 46 kts 41°
2026-05-06 17:28 51.14360 13.78069 718 ft 19 kts 50°
2026-05-06 17:28 51.14324 13.78250 702 ft 20 kts 131°
2026-05-06 17:28 51.14227 13.78360 706 ft 15 kts 193°
2026-05-06 17:28 51.14156 13.78271 713 ft 11 kts 221°
2026-05-06 17:29 51.14065 13.78146 711 ft 26 kts 220°
2026-05-06 17:29 51.13899 13.77919 714 ft 38 kts 220°
2026-05-06 17:29 51.13735 13.77692 720 ft 28 kts 220°
2026-05-06 17:29 51.13594 13.77497 724 ft 27 kts 221°
2026-05-06 17:30 51.13456 13.77307 729 ft 25 kts 221°
2026-05-06 17:30 51.13325 13.77127 732 ft 24 kts 220°
2026-05-06 17:30 51.13204 13.76961 738 ft 21 kts 221°
2026-05-06 17:30 51.13107 13.76827 743 ft 16 kts 221°
2026-05-06 17:31 51.13023 13.76711 744 ft 17 kts 221°
2026-05-06 17:31 51.12923 13.76571 745 ft 22 kts 223°
2026-05-06 17:31 51.12793 13.76392 746 ft 25 kts 219°
2026-05-06 17:31 51.12691 13.76290 748 ft 11 kts 147°
2026-05-06 17:32 51.12647 13.76369 749 ft 8 kts 131°
2026-05-06 17:32 51.12635 13.76391 751 ft 0 kts 130°
2026-05-06 17:32 51.12634 13.76392 751 ft 0 kts 130°
2026-05-06 17:32 51.12633 13.76394 751 ft 0 kts 130°